DW3800 Weather Reports


time (UTC)temp
C
wind
direction
speed
KPH
gust
KPH
rain 1hr
cm
rain 24hr
cm
rain mn
cm
humidity
%
barometer
mb
20260509133631 10 225 6.4 9.7 0.00 0.00 0.00 77 1008.1
20260509133128 10 294 1.6 14.5 0.00 0.00 0.00 79 1007.8
20260509132626 10 345 4.8 17.7 0.00 0.00 0.00 79 1007.9
20260509132124 10 247 4.8 16.1 0.00 0.00 0.00 78 1007.9
20260509131620 10 275 3.2 12.9 0.00 0.00 0.00 77 1007.6
20260509131117 10 282 6.4 9.7 0.00 0.00 0.00 76 1007.6
20260509130613 10 272 11.3 17.7 0.00 0.00 0.00 77 1007.6
20260509130110 10 229 11.3 12.9 0.00 0.00 0.00 78 1007.5
20260509125606 10 287 4.8 8.0 0.00 0.00 0.00 78 1007.3
20260509125103 10 247 6.4 17.7 0.00 0.00 0.00 79 1007.0
20260509124559 10 275 9.7 14.5 0.00 0.00 0.00 80 1007.1
20260509124057 10 299 12.9 22.5 0.00 0.00 0.00 81 1007.2
20260509123555 10 236 3.2 22.5 0.00 0.00 0.00 81 1007.1
20260509123051 10 272 11.3 17.7 0.00 0.00 0.00 82 1007.2
20260509122547 10 190 8.0 14.5 0.00 0.00 0.00 82 1007.0
20260509122044 10 222 12.9 17.7 0.00 0.00 0.00 83 1006.8
20260509121540 10 224 6.4 12.9 0.00 0.00 0.00 83 1006.7
20260509121038 10 197 8.0 20.9 0.00 0.00 0.00 84 1006.7
20260509120536 10 238 1.6 9.7 0.00 0.00 0.00 84 1006.3
20260509120034 10 202 6.4 11.3 0.00 0.00 0.00 83 1006.5
20260509115531 10 207 9.7 14.5 0.00 0.00 0.00 82 1006.5
20260509115029 10 214 3.2 4.8 0.00 0.00 0.00 81 1006.3
20260509114527 10 208 6.4 9.7 0.00 0.00 0.00 80 1006.4
20260509114026 10 269 6.4 12.9 0.00 0.00 0.00 79 1006.2
20260509113523 10 171 9.7 12.9 0.00 0.00 0.00 78 1006.0
20260509113021 10 247 1.6 8.0 0.00 0.00 0.00 75 1005.9
20260509112517 10 208 1.6 4.8 0.00 0.00 0.00 73 1005.8
20260509112014 10 236 1.6 1.6 0.00 0.00 0.00 73 1005.7
20260509111511 10 248 1.6 1.6 0.00 0.00 0.00 72 1005.6
20260509111008 10 226 1.6 3.2 0.00 0.00 0.00 72 1005.4
20260509110505 10 241 3.2 4.8 0.00 0.00 0.00 72 1005.5
20260509110002 10 234 1.6 3.2 0.00 0.00 0.00 72 1005.5
20260509105500 10 209 1.6 9.7 0.00 0.00 0.00 72 1005.3
20260509104957 10 148 1.6 1.6 0.00 0.00 0.00 72 1005.5
20260509104454 10 264 1.6 4.8 0.00 0.00 0.00 70 1005.2
20260509103952 10 242 1.6 3.2 0.00 0.00 0.00 69 1005.4
20260509103449 10 244 4.8 8.0 0.00 0.00 0.00 65 1005.2
20260509102947 10 263 3.2 3.2 0.00 0.00 0.00 63 1005.6
20260509102444 11 246 1.6 4.8 0.00 0.00 0.00 62 1005.7
20260509101940 11 255 3.2 3.2 0.00 0.00 0.00 60 1005.5
20260509101436 11 243 0.0 1.6 0.00 0.00 0.00 59 1004.9
20260509100934 11 250 0.0 3.2 0.00 0.00 0.00 59 1005.0
20260509100431 11 28 3.2 4.8 0.00 0.00 0.00 58 1004.8
20260509095928 11 248 3.2 4.8 0.00 0.00 0.00 57 1005.2
20260509095425 11 253 0.0 4.8 0.00 0.00 0.00 56 1005.2
20260509094922 11 220 1.6 4.8 0.00 0.00 0.00 55 1005.5
20260509094418 11 267 1.6 3.2 0.00 0.00 0.00 55 1005.5
20260509093916 11 228 0.0 3.2 0.00 0.00 0.00 54 1005.4
20260509093413 11 246 3.2 9.7 0.00 0.00 0.00 54 1005.5
20260509092912 11 319 6.4 9.7 0.00 0.00 0.00 53 1005.5
20260509092409 11 254 3.2 3.2 0.00 0.00 0.00 52 1005.5
20260509091907 11 196 1.6 9.7 0.00 0.00 0.00 51 1005.3
20260509091404 11 214 1.6 4.8 0.00 0.00 0.00 51 1005.4
20260509090901 11 240 3.2 9.7 0.00 0.00 0.00 50 1005.4
20260509090358 11 289 3.2 4.8 0.00 0.00 0.00 49 1005.5
20260509085856 11 218 6.4 9.7 0.00 0.00 0.00 49 1005.4
20260509085353 11 209 3.2 8.0 0.00 0.00 0.00 49 1005.3
20260509084849 12 255 4.8 11.3 0.00 0.00 0.00 48 1005.0
20260509084346 12 203 1.6 11.3 0.00 0.00 0.00 47 1005.0
20260509083844 11 214 3.2 9.7 0.00 0.00 0.00 47 1005.0
20260509083340 11 227 1.6 4.8 0.00 0.00 0.00 47 1004.7
20260509082837 11 190 1.6 3.2 0.00 0.00 0.00 47 1005.2
20260509082333 11 230 1.6 3.2 0.00 0.00 0.00 47 1004.8
20260509081831 11 256 1.6 1.6 0.00 0.00 0.00 47 1004.8
20260509081328 11 248 1.6 3.2 0.00 0.00 0.00 45 1004.2
20260509080826 11 207 1.6 1.6 0.00 0.00 0.00 45 1004.4
20260509080324 11 220 1.6 1.6 0.00 0.00 0.00 45 1004.2
20260509075822 11 197 0.0 1.6 0.00 0.00 0.00 45 1004.1
20260509075318 11 209 0.0 0.0 0.00 0.00 0.00 45 1004.1
20260509074816 11 209 0.0 0.0 0.00 0.00 0.00 46 1003.7
20260509074313 12 209 0.0 0.0 0.00 0.00 0.00 44 1004.0
20260509073809 12 185 0.0 1.6 0.00 0.00 0.00 43 1004.5
20260509073306 12 207 0.0 1.6 0.00 0.00 0.00 43 1004.2
20260509072803 12 214 0.0 0.0 0.00 0.00 0.00 43 1004.1
20260509072259 12 216 0.0 0.0 0.00 0.00 0.00 43 1004.4
20260509071756 12 207 0.0 1.6 0.00 0.00 0.00 42 1004.6
20260509071253 12 210 0.0 1.6 0.00 0.00 0.00 43 1004.5
20260509070750 12 210 0.0 3.2 0.00 0.00 0.00 42 1004.5
20260509070246 11 202 0.0 0.0 0.00 0.00 0.00 43 1004.5
20260509065743 11 208 0.0 0.0 0.00 0.00 0.00 44 1004.4
20260509065239 10 204 0.0 0.0 0.00 0.00 0.00 46 1004.6
20260509064735 10 212 0.0 0.0 0.00 0.00 0.00 46 1004.5
20260509064233 11 211 0.0 0.0 0.00 0.00 0.00 44 1004.4
20260509063730 10 209 0.0 0.0 0.00 0.00 0.00 45 1004.7
20260509063226 10 209 0.0 0.0 0.00 0.00 0.00 45 1004.7
20260509062724 10 240 0.0 0.0 0.00 0.00 0.00 49 1004.6
20260509062221 10 240 0.0 0.0 0.00 0.00 0.00 49 1004.8
20260509061718 11 240 0.0 0.0 0.00 0.00 0.00 45 1004.7
20260509061216 11 233 0.0 0.0 0.00 0.00 0.00 45 1004.8
20260509060713 11 164 0.0 0.0 0.00 0.00 0.00 44 1004.7
20260509060209 11 177 0.0 0.0 0.00 0.00 0.00 43 1004.8
20260509055705 11 193 0.0 0.0 0.00 0.00 0.00 43 1005.3
20260509055201 11 212 0.0 0.0 0.00 0.00 0.00 42 1005.2
20260509054657 11 208 0.0 0.0 0.00 0.00 0.00 43 1005.3
20260509054155 11 208 0.0 0.0 0.00 0.00 0.00 43 1005.2
20260509053653 11 208 0.0 0.0 0.00 0.00 0.00 43 1005.2
20260509053150 12 208 0.0 0.0 0.00 0.00 0.00 41 1005.3
20260509052648 12 208 0.0 0.0 0.00 0.00 0.00 40 1005.2
20260509052145 12 203 0.0 1.6 0.00 0.00 0.00 39 1005.3
20260509051643 13 211 0.0 0.0 0.00 0.00 0.00 38 1005.4
20260509051140 13 234 1.6 1.6 0.00 0.00 0.00 37 1005.3
20260509050637 13 202 1.6 1.6 0.00 0.00 0.00 37 1005.3
20260509050133 13 224 0.0 4.8 0.00 0.00 0.00 37 1005.4
20260509045631 13 270 1.6 3.2 0.00 0.00 0.00 36 1005.5
20260509045127 13 204 4.8 4.8 0.00 0.00 0.00 37 1005.5
20260509044625 13 221 3.2 4.8 0.00 0.00 0.00 36 1005.7
20260509044122 14 228 1.6 3.2 0.00 0.00 0.00 36 1005.5
20260509043618 14 166 1.6 8.0 0.00 0.00 0.00 36 1005.4
20260509043114 14 220 4.8 8.0 0.00 0.00 0.00 35 1005.7
20260509042611 14 237 4.8 17.7 0.00 0.00 0.00 36 1005.5
20260509042106 14 225 3.2 11.3 0.00 0.00 0.00 36 1005.8
20260509041603 15 249 3.2 11.3 0.00 0.00 0.00 35 1005.6
20260509041101 15 185 4.8 9.7 0.00 0.00 0.00 35 1005.6
20260509040600 15 174 1.6 11.3 0.00 0.00 0.00 36 1005.6
20260509040056 15 249 1.6 9.7 0.00 0.00 0.00 36 1005.6
20260509035553 15 282 3.2 12.9 0.00 0.00 0.00 35 1005.5
20260509035049 15 203 4.8 9.7 0.00 0.00 0.00 35 1005.7
20260509034548 15 241 4.8 8.0 0.00 0.00 0.00 35 1005.6
20260509034044 15 219 8.0 12.9 0.00 0.00 0.00 34 1005.7
20260509033541 15 224 4.8 12.9 0.00 0.00 0.00 34 1005.6
20260509033038 16 39 3.2 14.5 0.00 0.00 0.00 34 1005.6
20260509032536 16 232 3.2 20.9 0.00 0.00 0.00 34 1005.4
20260509032032 16 269 8.0 20.9 0.00 0.00 0.00 35 1005.4
20260509031530 16 227 4.8 8.0 0.00 0.00 0.00 37 1005.4
20260509031027 16 259 11.3 12.9 0.00 0.00 0.00 36 1005.5
20260509030525 16 285 8.0 17.7 0.00 0.00 0.00 36 1005.3
20260509030022 16 271 4.8 8.0 0.00 0.00 0.00 36 1005.3
20260509025518 16 227 9.7 17.7 0.00 0.00 0.00 35 1005.2
20260509025013 17 302 6.4 14.5 0.00 0.00 0.00 35 1005.0
20260509024509 17 249 1.6 12.9 0.00 0.00 0.00 35 1005.0
20260509024006 17 226 12.9 16.1 0.00 0.00 0.00 34 1004.6
20260509023504 17 200 11.3 20.9 0.00 0.00 0.00 34 1004.5
20260509023001 17 240 12.9 14.5 0.00 0.00 0.00 33 1004.6
20260509022457 17 268 4.8 11.3 0.00 0.00 0.00 33 1004.5
20260509021955 17 262 4.8 4.8 0.00 0.00 0.00 33 1004.4
20260509021451 17 189 9.7 14.5 0.00 0.00 0.00 32 1004.2
20260509020948 17 201 3.2 11.3 0.00 0.00 0.00 31 1004.3
20260509020447 18 202 4.8 11.3 0.00 0.00 0.00 31 1004.0
20260509015943 18 192 1.6 12.9 0.00 0.00 0.00 30 1004.1
20260509015443 18 243 11.3 16.1 0.00 0.00 0.00 30 1003.9
20260509014939 18 247 4.8 12.9 0.00 0.00 0.00 30 1003.9
20260509014435 18 236 8.0 11.3 0.00 0.00 0.00 29 1003.7
20260509013931 18 254 6.4 9.7 0.00 0.00 0.00 30 1003.8
20260509013429 18 221 11.3 20.9 0.00 0.00 0.00 29 1003.8
20260509012924 18 252 4.8 8.0 0.00 0.00 0.00 29 1003.5
20260509012421 18 226 6.4 20.9 0.00 0.00 0.00 29 1003.7
20260509011918 18 284 6.4 14.5 0.00 0.00 0.00 29 1003.6
20260509011416 19 228 1.6 11.3 0.00 0.00 0.00 29 1003.6
20260509010914 19 247 9.7 17.7 0.00 0.00 0.00 29 1003.6
20260509010411 19 255 8.0 12.9 0.00 0.00 0.00 29 1003.5
20260509005907 19 223 1.6 8.0 0.00 0.00 0.00 30 1003.6
20260509005406 20 216 16.1 24.1 0.00 0.00 0.00 29 1003.7
20260509004905 20 234 4.8 14.5 0.00 0.00 0.00 29 1003.4
20260509004402 20 173 3.2 20.9 0.00 0.00 0.00 29 1003.8
20260509003900 20 246 8.0 17.7 0.00 0.00 0.00 29 1003.4
20260509003358 20 167 4.8 24.1 0.00 0.00 0.00 29 1003.7
20260509002854 20 231 4.8 17.7 0.00 0.00 0.00 29 1003.3
20260509002352 20 201 3.2 12.9 0.00 0.00 0.00 30 1003.5
20260509001850 20 179 8.0 16.1 0.00 0.00 0.00 29 1003.3
20260509001345 20 226 8.0 12.9 0.00 0.00 0.00 28 1003.8
20260509000843 20 223 9.7 20.9 0.00 0.00 0.00 29 1003.5
20260509000341 20 216 4.8 8.0 0.00 0.00 0.00 30 1003.5
20260508235836 20 232 6.4 9.7 0.00 0.00 0.00 30 1003.7
20260508235334 20 104 8.0 24.1 0.00 0.00 0.00 29 1003.3
20260508234831 20 230 6.4 17.7 0.00 0.00 0.00 29 1003.5
20260508234327 20 235 8.0 17.7 0.00 0.00 0.00 30 1003.6
20260508233826 21 221 11.3 27.4 0.00 0.00 0.00 29 1003.7
20260508233325 20 217 8.0 16.1 0.00 0.00 0.00 29 1003.6
20260508232821 20 250 4.8 12.9 0.00 0.00 0.00 29 1003.8
20260508232317 20 216 4.8 11.3 0.00 0.00 0.00 30 1003.7
20260508231816 20 227 6.4 17.7 0.00 0.00 0.00 29 1004.0
20260508231312 20 257 11.3 14.5 0.00 0.00 0.00 29 1003.9
20260508230809 20 240 4.8 11.3 0.00 0.00 0.00 30 1003.9
20260508230305 20 225 12.9 22.5 0.00 0.00 0.00 29 1003.9
20260508225803 21 163 4.8 22.5 0.00 0.00 0.00 29 1003.7
20260508225259 21 182 14.5 24.1 0.00 0.00 0.00 28 1003.9
20260508224757 21 212 11.3 20.9 0.00 0.00 0.00 28 1003.9
20260508224254 20 165 4.8 16.1 0.00 0.00 0.00 29 1003.9
20260508223752 20 252 1.6 12.9 0.00 0.00 0.00 30 1004.1
20260508223249 21 230 4.8 14.5 0.00 0.00 0.00 29 1004.1
20260508222746 20 217 11.3 24.1 0.00 0.00 0.00 29 1004.2
20260508222244 21 183 8.0 16.1 0.00 0.00 0.00 28 1004.1
20260508221740 21 189 4.8 9.7 0.00 0.00 0.00 28 1004.2
20260508221236 21 213 8.0 16.1 0.00 0.00 0.00 28 1004.2
20260508220732 20 220 1.6 3.2 0.00 0.00 0.00 30 1004.3
20260508220229 20 204 1.6 9.7 0.00 0.00 0.00 29 1004.4
20260508215725 20 246 6.4 20.9 0.00 0.00 0.00 29 1004.4
20260508215222 20 166 8.0 20.9 0.00 0.00 0.00 29 1004.4
20260508214719 21 221 8.0 22.5 0.00 0.00 0.00 28 1004.4
20260508214216 20 233 8.0 17.7 0.00 0.00 0.00 28 1004.5
20260508213713 20 203 17.7 22.5 0.00 0.00 0.00 28 1004.5
20260508213209 20 205 4.8 20.9 0.00 0.00 0.00 29 1004.8
20260508212706 21 231 11.3 14.5 0.00 0.00 0.00 27 1004.9
20260508212202 21 160 14.5 16.1 0.00 0.00 0.00 27 1004.8
20260508211658 21 232 6.4 14.5 0.00 0.00 0.00 27 1004.7
20260508211154 21 191 12.9 17.7 0.00 0.00 0.00 29 1004.8
20260508210651 20 176 11.3 16.1 0.00 0.00 0.00 28 1005.0
20260508210148 20 220 9.7 12.9 0.00 0.00 0.00 28 1004.8
20260508205645 21 193 12.9 20.9 0.00 0.00 0.00 27 1005.0
20260508205142 20 269 4.8 20.9 0.00 0.00 0.00 28 1005.0
20260508204638 21 153 3.2 17.7 0.00 0.00 0.00 28 1005.4
20260508204134 21 223 4.8 12.9 0.00 0.00 0.00 27 1005.5
20260508203631 20 280 11.3 16.1 0.00 0.00 0.00 27 1005.4
20260508203127 20 224 8.0 11.3 0.00 0.00 0.00 27 1005.4
20260508202623 20 239 1.6 4.8 0.00 0.00 0.00 28 1005.6
20260508202120 20 272 3.2 16.1 0.00 0.00 0.00 28 1005.9
20260508201617 20 218 3.2 9.7 0.00 0.00 0.00 28 1005.6
20260508201114 19 209 6.4 11.3 0.00 0.00 0.00 28 1006.0
20260508200611 19 204 4.8 11.3 0.00 0.00 0.00 28 1006.0
20260508200106 19 211 8.0 11.3 0.00 0.00 0.00 27 1006.3
20260508195603 19 227 11.3 14.5 0.00 0.00 0.00 27 1006.1
20260508195059 20 116 3.2 14.5 0.00 0.00 0.00 28 1006.1
20260508194556 20 214 4.8 9.7 0.00 0.00 0.00 27 1006.1
20260508194054 19 200 1.6 11.3 0.00 0.00 0.00 30 1006.3
20260508193550 20 263 8.0 11.3 0.00 0.00 0.00 28 1006.3
20260508193047 19 236 6.4 8.0 0.00 0.00 0.00 27 1006.5
20260508192543 19 200 9.7 16.1 0.00 0.00 0.00 28 1006.4
20260508192041 19 215 3.2 12.9 0.00 0.00 0.00 27 1006.3
20260508191537 19 279 6.4 14.5 0.00 0.00 0.00 28 1006.7
20260508191034 19 195 4.8 9.7 0.00 0.00 0.00 27 1006.6
20260508190531 19 114 1.6 4.8 0.00 0.00 0.00 28 1006.4
20260508190027 19 117 4.8 16.1 0.00 0.00 0.00 28 1006.4
20260508185525 19 182 4.8 4.8 0.00 0.00 0.00 28 1006.6
20260508185023 20 159 9.7 16.1 0.00 0.00 0.00 27 1006.7
20260508184520 19 220 6.4 12.9 0.00 0.00 0.00 28 1006.8
20260508184017 18 215 8.0 20.9 0.00 0.00 0.00 28 1006.7
20260508183513 18 233 11.3 22.5 0.00 0.00 0.00 28 1006.8
20260508183009 19 187 3.2 16.1 0.00 0.00 0.00 29 1006.9
20260508182506 19 141 1.6 14.5 0.00 0.00 0.00 29 1007.3
20260508182001 18 141 6.4 12.9 0.00 0.00 0.00 29 1007.2
20260508181457 19 224 11.3 16.1 0.00 0.00 0.00 28 1007.1
20260508180955 18 242 16.1 22.5 0.00 0.00 0.00 28 1007.5
20260508180452 19 236 9.7 11.3 0.00 0.00 0.00 27 1007.4
20260508175948 18 222 14.5 27.4 0.00 0.00 0.00 28 1007.6
20260508175444 18 211 12.9 33.8 0.00 0.00 0.00 27 1007.6
20260508174942 18 238 12.9 24.1 0.00 0.00 0.00 29 1007.7
20260508174440 18 130 4.8 20.9 0.00 0.00 0.00 31 1007.8
20260508173936 18 268 11.3 22.5 0.00 0.00 0.00 29 1008.1
20260508173434 18 236 14.5 17.7 0.00 0.00 0.00 28 1008.1
20260508172929 18 169 9.7 14.5 0.00 0.00 0.00 30 1008.1
20260508172427 18 244 8.0 20.9 0.00 0.00 0.00 29 1008.1
20260508171923 18 226 6.4 9.7 0.00 0.00 0.00 30 1008.3
20260508171419 18 115 1.6 4.8 0.00 0.00 0.00 33 1008.3
20260508170916 17 109 1.6 8.0 0.00 0.00 0.00 33 1008.3
20260508170414 16 188 9.7 12.9 0.00 0.00 0.00 33 1008.7
20260508165910 16 225 4.8 8.0 0.00 0.00 0.00 34 1008.8
20260508165408 16 215 6.4 12.9 0.00 0.00 0.00 34 1008.8
20260508164903 16 214 0.0 16.1 0.00 0.00 0.00 35 1008.8
20260508164401 16 132 8.0 16.1 0.00 0.00 0.00 36 1008.9
20260508163858 16 217 11.3 14.5 0.00 0.00 0.00 34 1008.8
20260508163356 16 227 6.4 9.7 0.00 0.00 0.00 36 1009.1
20260508162851 16 134 0.0 9.7 0.00 0.00 0.00 37 1009.1
20260508162349 16 241 11.3 14.5 0.00 0.00 0.00 35 1009.3
20260508161846 16 223 8.0 11.3 0.00 0.00 0.00 35 1009.2
20260508161343 15 178 3.2 4.8 0.00 0.00 0.00 36 1009.2
20260508160840 15 199 9.7 16.1 0.00 0.00 0.00 36 1009.5
20260508160339 15 206 8.0 20.9 0.00 0.00 0.00 36 1009.6
20260508155835 15 174 8.0 12.9 0.00 0.00 0.00 36 1009.5
20260508155332 15 223 4.8 16.1 0.00 0.00 0.00 36 1009.6
20260508154828 15 192 8.0 16.1 0.00 0.00 0.00 36 1009.4
20260508154326 15 215 4.8 12.9 0.00 0.00 0.00 37 1009.5
20260508153822 15 181 4.8 8.0 0.00 0.00 0.00 37 1009.6
20260508153321 15 220 6.4 11.3 0.00 0.00 0.00 37 1009.3
20260508152815 14 180 4.8 9.7 0.00 0.00 0.00 37 1009.5
20260508152312 14 178 9.7 12.9 0.00 0.00 0.00 37 1009.7
20260508151808 14 165 6.4 12.9 0.00 0.00 0.00 38 1009.7
20260508151305 14 7 1.6 11.3 0.00 0.00 0.00 39 1009.8
20260508150802 14 222 3.2 8.0 0.00 0.00 0.00 39 1010.0
20260508150259 14 151 3.2 4.8 0.00 0.00 0.00 39 1009.8
20260508145755 14 221 1.6 8.0 0.00 0.00 0.00 40 1009.9
20260508145251 13 166 1.6 8.0 0.00 0.00 0.00 39 1010.0
20260508144748 13 181 4.8 8.0 0.00 0.00 0.00 40 1010.2
20260508144246 13 229 1.6 3.2 0.00 0.00 0.00 41 1010.1
20260508143743 12 196 4.8 4.8 0.00 0.00 0.00 41 1009.9
20260508143240 12 111 1.6 3.2 0.00 0.00 0.00 43 1010.1
20260508142736 12 245 1.6 3.2 0.00 0.00 0.00 43 1010.1
20260508142233 12 220 0.0 1.6 0.00 0.00 0.00 44 1009.9
20260508141730 12 195 0.0 1.6 0.00 0.00 0.00 43 1010.3
20260508141228 12 236 3.2 3.2 0.00 0.00 0.00 43 1010.0
20260508140725 12 203 1.6 3.2 0.00 0.00 0.00 44 1010.2
20260508140222 12 210 1.6 4.8 0.00 0.00 0.00 43 1010.0
20260508135718 12 183 3.2 4.8 0.00 0.00 0.00 42 1010.2
20260508135214 12 207 4.8 8.0 0.00 0.00 0.00 41 1010.2
20260508134709 12 162 3.2 9.7 0.00 0.00 0.00 41 1010.3
20260508134207 12 241 0.0 4.8 0.00 0.00 0.00 42 1010.2
20260508133704 12 174 4.8 8.0 0.00 0.00 0.00 40 1010.1